This is the latest recevied weather packets stored in our database for station/object JS2WAD-13. If no packets are shown the sender has not sent any weather packets the latest 10 day(s).
| Time | Temp. | Humidity | Pressure | Rain* | Wind** | Luminosity | Snow |
|---|---|---|---|---|---|---|---|
| 1777950384 | 20.56° C | 31% | 910.9 hPa | 0 mm | - | 58 W/m² | - |
| 1777950084 | 21.11° C | 31% | 910.9 hPa | 0 mm | - | 867 W/m² | - |
| 1777949784 | 21.11° C | 31% | 910.9 hPa | 0 mm | - | 977 W/m² | - |
| 1777949484 | 20.56° C | 31% | 910.8 hPa | 0 mm | - | 984 W/m² | - |
| 1777949184 | 20° C | 32% | 910.8 hPa | 0 mm | - | 1118 W/m² | - |
| 1777948884 | 20° C | 36% | 910.9 hPa | 0 mm | - | 988 W/m² | - |
| 1777948584 | 19.44° C | 34% | 910.9 hPa | 0 mm | - | 974 W/m² | - |
| 1777948284 | 19.44° C | 34% | 910.8 hPa | 0 mm | - | 974 W/m² | - |
| 1777947984 | 18.89° C | 32% | 910.9 hPa | 0 mm | - | 132 W/m² | - |
| 1777947684 | 18.89° C | 32% | 911 hPa | 0 mm | - | 65 W/m² | - |
| 1777947384 | 18.33° C | 37% | 911.2 hPa | 0 mm | - | 993 W/m² | - |
| 1777947084 | 18.33° C | 41% | 911.3 hPa | 0 mm | - | 1020 W/m² | - |
| 1777946784 | 18.33° C | 39% | 911.3 hPa | 0 mm | - | 960 W/m² | - |
| 1777946484 | 18.33° C | 36% | 911.4 hPa | 0 mm | - | 942 W/m² | - |
| 1777946184 | 17.78° C | 36% | 911.4 hPa | 0 mm | - | 104 W/m² | - |
| 1777945884 | 17.78° C | 43% | 911.4 hPa | 0 mm | - | 72 W/m² | - |
| 1777945584 | 17.22° C | 51% | 911.4 hPa | 0 mm | - | 900 W/m² | - |
| 1777945284 | 17.22° C | 46% | 911.4 hPa | 0 mm | - | 923 W/m² | - |
| 1777944984 | 17.22° C | 42% | 911.5 hPa | 0 mm | - | 218 W/m² | - |
| 1777944684 | 16.67° C | 46% | 911.5 hPa | 0 mm | - | 86 W/m² | - |
| 1777944384 | 16.67° C | 47% | 911.5 hPa | 0 mm | - | 721 W/m² | - |
| 1777944084 | 16.67° C | 47% | 911.5 hPa | 0 mm | - | 97 W/m² | - |
| 1777943784 | 16.11° C | 48% | 911.5 hPa | 0 mm | - | 53 W/m² | - |
| 1777943484 | 16.11° C | 48% | 911.5 hPa | 0 mm | - | 54 W/m² | - |
| 1777943184 | 16.11° C | 49% | 911.5 hPa | 0 mm | - | 49 W/m² | - |
* Rain latest hour (hover to see other rain measurements)
** Current wind speed in m/s (hover to see current wind gust speed)